Location: Newark
(43.0000°N, 1.6781°W)
Time: 23:44:41
(UTC+00:00)

Vanguard 1 Rocket - Pass Details

Date: 28 April 2021
Orbit: 652 x 4224 km, 34.3° (Epoch: 10 May)

Event Time Altitude Azimuth Distance (km) Brightness Sun altitude
Rises 15:10:27 0° 265° (W) 3,722 11.3 41.0°
Reaches altitude 10° 15:14:00 10° 250° (WSW) 2,415 10.8 40.4°
Maximum altitude 15:17:51 21° 202° (SSW) 1,548 9.4 39.7°
Drops below altitude 10° 15:21:11 10° 152° (SSE) 2,046 9.2 39.2°
Sets 15:23:53 0° 135° (SE) 2,983 9.8 38.7°
